Showing default

QIANFAN-120, 68647

Orbit data source: Space-Track

QIANFAN-120, 68647 is a Chinese payload satellite in LEO that was launched on Tue, 07 Apr 2026 UTC via a CHANG ZHENG 8 launch vehicle from the Wenchang Satellite Launch Center (WSC). Payload-class satellites include a variety of spacecraft equipped with specific instruments for various scientific and technological missions. These include communications satellites like Starlink; space stations such as the ISS; scientific satellites like the Hubble; Earth observation satellites from companies like Planet Labs, Umbra, and HawkEye 360; GPS; miniature CubeSats for education and research; and military/defense satellites.

Loading next visibility...
Identifier
68647, 2026-075M
Orbit
LEO
Country
Flag of CNCN / PRC
Related business
Manufacturer
SECM
Mission
Operational spacecraft
Bus & Motor
QIANFAN, Unknown motor
Mass
267 kg wet, ~267 kg dry
Launch date (UTC)
2026-04-07 (2 months ago)
Launch vehicle
CHANG ZHENG 8
Launch site
Wenchang Satellite Launch Center (WSC)
Object type
Payload
Rocket body
Debris
Shape & HBR
Unknown shape, 1.6 m
Radar Cross Section
Large (>1 m²)

Expand to show TLE details & history
Last TLE update: 13 hours ago

TLE from 13 hours ago
0 QIANFAN-120
1 68647U 26075M   26171.29091542  .00000081  00000-0  10755-3 0  9990
2 68647  88.9897 320.6686 0001744 108.5712 251.5629 13.51004765 10231
Epoch: 2026-06-20T06:58Z
TLE epoch observation values (Epoch: 2026-06-20T06:58:55.092Z)
Latitude
0.00002°
Longitude
-52.5686°
Altitude
1,071.928 km
Speed
7.316 km/s
True Right ascension
21h 22m 40s
True Declination
0° 00' 00"
Sunlit
Object was in full shadow at epoch
Visualization orbit readout
Latitude
Unknown
Longitude
Unknown
Altitude
Unknown
Speed
Unknown
Apparent Right ascension
Unknown
Apparent Declination
Unknown
Sunlit
N/A
Visualization observer readout
Local Sidereal Time
07:14:57
Azimuth
Unknown
Elevation
Unknown
Doppler factor
Unknown
Orbital elements
Apogee altitude
1,066.913 km
Perigee altitude
1,064.317 km
Semi-major axis
7,443.752 km
Eccentricity
0.00017
Inclination
88.9897°
RAAN
320.6686°
Arg. of periapsis
108.5712°
True anomaly
251.54394°
Mean anomaly
251.5629°
Eccentric anomaly
251.55342°
Mean motion
3.37952 °/min
Orbital period
106.52 mins
BSTAR
0.00010755
Loading maneuver chart data...
Computing Atmospheric mass density...
Loading historical data...
Loading historical data...
Loading historical data...
Loading historical data...
Loading historical data...
Loading historical data...
Loading historical data...

Documentation

Showing up to 5 results
|